Regional Weather Roundup
Issued by NWS Jackson, KY

Home | Current Version | Previous Version | Graphics & Text | Print | Product List | Glossary On
Versions: 1 2 3 4 5 6 7 8 9 10 11 12 13 14 15 16 17 18 19 20 21 22 23 24 25 26 27 28
000
ASUS43 KJKL 230910
RWRJKL

EAST KENTUCKY HOURLY WEATHER ROUNDUP
NATIONAL WEATHER SERVICE JACKSON KY
400 AM EST MON JAN 23 2017

NOTE: "FAIR" INDICATES FEW OR NO CLOUDS BELOW 12,000 FEET WITH
NO SIGNIFICANT WEATHER AND/OR OBSTRUCTIONS TO VISIBILITY.

* THESE REPORTS ARE NOT UNDER NWS QUALITY CONTROL AND MAY NOT
  REPORT WEATHER SUCH AS PRECIPITATION AND FOG.

KYZ079-080-083-085-087-088-110-112-115-119-120-231000
...EASTERN KENTUCKY...

CITY           SKY/WX    TMP DP  RH WIND       PRES   REMARKS
JACKSON        CLOUDY    51  50  96 NE6       29.26F
LONDON         LGT RAIN  53  50  89 NE13      29.25S
SOMERSET*      LGT RAIN  52  52 100 N10       29.27S
MONTICELLO*    RAIN      53  52  96 N21       29.28R
WILLIAMSBURG*  CLOUDY    54  54 100 N10       29.22S
MIDDLESBORO*   DRIZZLE   50  50 100 CALM      29.22F
HARLAN APT*    CLOUDY    52  50  93 CALM      29.22S
PIKE CO APT*   LGT RAIN  50  50 100 N8        29.27S
BIG SANDY APT* LGT RAIN  51  51 100 NE8       29.28F
MOREHEAD APT*  LGT RAIN  52  50  93 VRB6G12   29.34S
ASHLAND*       CLOUDY    54  52  94 NE9       29.31F
$$

KYZ035-036-041-042-044-050-067-078-099-231000
...CENTRAL KENTUCKY...

CITY           SKY/WX    TMP DP  RH WIND       PRES   REMARKS
MT STERLING*   LGT RAIN  52  52 100 NE9       29.33F
FLEMING/MASON* RAIN      52  51  97 NE9       29.36S
DANVILLE*      RAIN      52  50  93 N12       29.33R
LEXINGTON      LGT RAIN  52  50  93 N17       29.33S
FRANKFORT      LGT RAIN  54  48  80 N10G18    29.35S
LOUISVILLE     CLOUDY    55  48  77 N16G26    29.40R
LEBANON*       LGT RAIN  54  50  87 N12G20    29.34R
GLASGOW*       RAIN      54  50  87 N15G22    29.33R
BOWLING GREEN  CLOUDY    58  50  75 NW12G21   29.37R
$$

KYZ091>093-OHZ055-061-077-WVZ005-015-034-035-042-231000
...SOUTHERN OHIO/WEST VIRGINIA...

CITY           SKY/WX    TMP DP  RH WIND       PRES   REMARKS
COVINGTON      CLOUDY    53  48  83 N17G25    29.41S
COLUMBUS       LGT RAIN  54  48  80 NE12      29.43R
DAYTON         CLOUDY    45  43  93 N14       29.48R FOG
WILMINGTON     CLOUDY    50  48  93 N15       29.41R
HUNTINGTON     CLOUDY    53  50  89 NE5       29.31F
CHARLESTON     CLOUDY    53  48  83 NE6       29.30F
BECKLEY        CLOUDY    48  44  86 E10       29.29F
BLUEFIELD      HVY RAIN  45  44  97 E9        29.28F FOG
LOGAN CO APT*  LGT RAIN  52  48  87 NE7       29.28S
$$

VAZ002-007-008-TNZ017-027-036-066-071-231000
...SOUTHWEST VIRGINIA/EAST TENNESSEE...

CITY           SKY/WX    TMP DP  RH WIND       PRES   REMARKS
WISE*          LGT RAIN  48  48 100 NE7       29.25F VSB 1/2
JONESVILLE*    RAIN      50  50 100 CALM      29.24S
ABINGDON*      RAIN      51  49  92 E14       29.21F
BRISTOL        LGT RAIN  51  49  92 NE12      29.18F
MORRISTOWN*    CLOUDY    50  50 100 S7        29.18S
SEVIERVILLE*   CLOUDY    48  48 100 NW6       29.19R
KNOXVILLE      LGT RAIN  52  48  86 W12       29.20S
LAFOLLETTE*    CLOUDY    52  50  93 CALM      29.23S
OAK RIDGE      CLOUDY    54  51  90 CALM      29.22R
CROSSVILLE     CLOUDY    50  49  96 N5        29.23S
NASHVILLE      CLOUDY    56  50  80 NW22G30   29.35R
$$

...KEY TO REMARKS...
VSB - VISIBILITY IN MILES
WCI - WIND CHILL INDEX
HX  - HEAT INDEX

$$




USA.gov is the U.S. government's official web portal to all federal, state and local government web resources and services.